NKS242 KFLL-MYNN

Flight info

Callsign NKS242
Flight time 0h 34m
Altitude 19000
Route SNAPR2 RAJAY
Aircraft A321/M-SDE3FGHIRWY/LB1

Departure

Time 2026-05-03 23:56
Airport Fort Lauderdale Hollywood International Airport (KFLL)

Arrival

Time 2026-05-04 00:30
Airport Lynden Pindling International Airport (MYNN)
Time Latitude Longitude Altitude Speed Heading
2026-05-03 21:59 26.07346 -80.14600 16 ft 0 kts 207°
2026-05-03 22:28 26.07353 -80.14596 17 ft 0 kts 207°
2026-05-03 22:52 26.07358 -80.14593 16 ft 3 kts 207°
2026-05-03 22:52 26.07374 -80.14584 18 ft 3 kts 207°
2026-05-03 22:52 26.07380 -80.14581 16 ft 3 kts 207°
2026-05-03 22:53 26.07424 -80.14556 17 ft 3 kts 207°
2026-05-03 22:53 26.07440 -80.14544 18 ft 3 kts 226°
2026-05-03 22:53 26.07453 -80.14529 17 ft 3 kts 226°
2026-05-03 22:54 26.07466 -80.14515 19 ft 3 kts 239°
2026-05-03 22:54 26.07475 -80.14497 19 ft 3 kts 261°
2026-05-03 22:54 26.07476 -80.14491 19 ft 0 kts 267°
2026-05-03 22:56 26.07478 -80.14551 16 ft 6 kts 274°
2026-05-03 22:56 26.07484 -80.14599 16 ft 7 kts 276°
2026-05-03 22:56 26.07487 -80.14657 16 ft 8 kts 272°
2026-05-03 22:57 26.07489 -80.14725 16 ft 9 kts 272°
2026-05-03 22:57 26.07489 -80.14803 16 ft 11 kts 268°
2026-05-03 22:57 26.07487 -80.14891 16 ft 12 kts 268°
2026-05-03 22:57 26.07484 -80.14988 16 ft 13 kts 268°
2026-05-03 22:58 26.07485 -80.15093 16 ft 14 kts 274°
2026-05-03 22:58 26.07490 -80.15205 16 ft 15 kts 270°
2026-05-03 22:58 26.07490 -80.15325 16 ft 16 kts 270°
2026-05-03 22:58 26.07491 -80.15453 16 ft 17 kts 270°
2026-05-03 22:59 26.07492 -80.15586 16 ft 18 kts 270°
2026-05-03 22:59 26.07492 -80.15724 16 ft 18 kts 270°
2026-05-03 22:59 26.07492 -80.15845 16 ft 11 kts 270°
2026-05-03 22:59 26.07493 -80.15910 16 ft 0 kts 271°
2026-05-03 23:00 26.07493 -80.15917 16 ft 2 kts 271°
2026-05-03 23:00 26.07493 -80.15933 16 ft 0 kts 271°
2026-05-03 23:00 26.07493 -80.15934 16 ft 0 kts 271°
2026-05-03 23:00 26.07493 -80.15935 16 ft 0 kts 271°
2026-05-03 23:01 26.07493 -80.15938 16 ft 1 kts 271°
2026-05-03 23:01 26.07493 -80.15951 16 ft 2 kts 271°
2026-05-03 23:02 26.07494 -80.15974 16 ft 4 kts 271°
2026-05-03 23:02 26.07494 -80.16005 16 ft 4 kts 270°
2026-05-03 23:02 26.07494 -80.16011 16 ft 0 kts 270°
2026-05-03 23:02 26.07494 -80.16012 16 ft 0 kts 270°
2026-05-03 23:03 26.07494 -80.16017 16 ft 1 kts 270°
2026-05-03 23:03 26.07494 -80.16031 16 ft 3 kts 270°
2026-05-03 23:03 26.07495 -80.16056 16 ft 4 kts 270°
2026-05-03 23:03 26.07495 -80.16067 16 ft 0 kts 270°
2026-05-03 23:04 26.07495 -80.16068 16 ft 0 kts 270°
2026-05-03 23:05 26.07495 -80.16069 16 ft 0 kts 270°
2026-05-03 23:06 26.07495 -80.16072 16 ft 1 kts 270°
2026-05-03 23:07 26.07495 -80.16075 16 ft 0 kts 270°
2026-05-03 23:07 26.07495 -80.16076 16 ft 1 kts 270°
2026-05-03 23:07 26.07495 -80.16079 16 ft 0 kts 270°
2026-05-03 23:08 26.07495 -80.16098 16 ft 5 kts 270°
2026-05-03 23:08 26.07495 -80.16149 16 ft 2 kts 270°
2026-05-03 23:08 26.07495 -80.16150 16 ft 0 kts 270°
2026-05-03 23:09 26.07495 -80.16151 16 ft 0 kts 270°
2026-05-03 23:10 26.07495 -80.16152 16 ft 1 kts 270°
2026-05-03 23:10 26.07495 -80.16162 16 ft 0 kts 270°
2026-05-03 23:10 26.07496 -80.16165 16 ft 0 kts 270°
2026-05-03 23:13 26.07496 -80.16173 16 ft 3 kts 270°
2026-05-03 23:14 26.07496 -80.16213 16 ft 1 kts 270°
2026-05-03 23:14 26.07496 -80.16246 16 ft 7 kts 270°
2026-05-03 23:14 26.07496 -80.16277 16 ft 2 kts 270°
2026-05-03 23:14 26.07496 -80.16304 16 ft 0 kts 270°
2026-05-03 23:15 26.07496 -80.16306 16 ft 0 kts 270°
2026-05-03 23:15 26.07496 -80.16311 16 ft 2 kts 270°
2026-05-03 23:15 26.07496 -80.16342 16 ft 0 kts 270°
2026-05-03 23:15 26.07496 -80.16343 16 ft 1 kts 270°
2026-05-03 23:16 26.07496 -80.16346 16 ft 0 kts 270°
2026-05-03 23:17 26.07496 -80.16367 16 ft 4 kts 270°
2026-05-03 23:17 26.07496 -80.16372 16 ft 0 kts 270°
2026-05-03 23:22 26.07496 -80.16385 16 ft 0 kts 270°
2026-05-03 23:26 26.07496 -80.16386 16 ft 1 kts 269°
2026-05-03 23:26 26.07495 -80.16397 16 ft 2 kts 269°
2026-05-03 23:26 26.07496 -80.16420 16 ft 4 kts 271°
2026-05-03 23:27 26.07496 -80.16438 16 ft 0 kts 271°
2026-05-03 23:30 26.07496 -80.16441 16 ft 1 kts 271°
2026-05-03 23:30 26.07496 -80.16452 16 ft 0 kts 270°
2026-05-03 23:38 26.07496 -80.16456 16 ft 1 kts 270°
2026-05-03 23:38 26.07496 -80.16459 16 ft 0 kts 270°
2026-05-03 23:41 26.07496 -80.16465 16 ft 2 kts 270°
2026-05-03 23:41 26.07496 -80.16488 16 ft 4 kts 270°
2026-05-03 23:41 26.07497 -80.16516 16 ft 3 kts 270°
2026-05-03 23:41 26.07497 -80.16528 16 ft 0 kts 270°
2026-05-03 23:43 26.07496 -80.16542 16 ft 2 kts 269°
2026-05-03 23:43 26.07496 -80.16555 16 ft 2 kts 269°
2026-05-03 23:43 26.07496 -80.16575 16 ft 3 kts 269°
2026-05-03 23:44 26.07496 -80.16585 16 ft 0 kts 270°
2026-05-03 23:45 26.07496 -80.16588 16 ft 2 kts 270°
2026-05-03 23:45 26.07497 -80.16599 16 ft 0 kts 278°
2026-05-03 23:45 26.07497 -80.16600 16 ft 0 kts 278°
2026-05-03 23:46 26.07504 -80.16619 16 ft 6 kts 301°
2026-05-03 23:46 26.07508 -80.16624 18 ft 0 kts 310°
2026-05-03 23:49 26.07509 -80.16625 17 ft 0 kts 311°
2026-05-03 23:50 26.07526 -80.16639 16 ft 6 kts 334°
2026-05-03 23:50 26.07557 -80.16643 16 ft 3 kts 358°
2026-05-03 23:50 26.07558 -80.16643 16 ft 0 kts 358°
2026-05-03 23:51 26.07560 -80.16643 16 ft 1 kts 358°
2026-05-03 23:51 26.07576 -80.16644 16 ft 2 kts 359°
2026-05-03 23:51 26.07577 -80.16644 16 ft 0 kts 359°
2026-05-03 23:52 26.07589 -80.16644 16 ft 0 kts 360°
2026-05-03 23:54 26.07590 -80.16644 16 ft 1 kts 360°
2026-05-03 23:55 26.07618 -80.16644 17 ft 7 kts 360°
2026-05-03 23:55 26.07690 -80.16600 18 ft 17 kts 73°
2026-05-03 23:55 26.07696 -80.16535 19 ft 26 kts 87°
2026-05-03 23:55 26.07695 -80.16062 19 ft 101 kts 91°
2026-05-03 23:56 26.07693 -80.15004 28 ft 169 kts 88°
2026-05-03 23:56 26.07706 -80.13683 874 ft 167 kts 88°
2026-05-03 23:56 26.07723 -80.12392 1716 ft 169 kts 87°
2026-05-03 23:56 26.07747 -80.11025 1953 ft 189 kts 88°
2026-05-03 23:57 26.07767 -80.09480 2103 ft 210 kts 88°
2026-05-03 23:57 26.07785 -80.07761 2223 ft 234 kts 89°
2026-05-03 23:57 26.07801 -80.05850 2441 ft 259 kts 89°
2026-05-03 23:57 26.07816 -80.03803 2997 ft 269 kts 89°
2026-05-03 23:58 26.07831 -80.01699 3698 ft 275 kts 90°
2026-05-03 23:58 26.07842 -79.99557 4403 ft 279 kts 90°
2026-05-03 23:58 26.07832 -79.97372 5066 ft 286 kts 91°
2026-05-03 23:58 26.07808 -79.95142 5718 ft 291 kts 91°
2026-05-03 23:59 26.07778 -79.92870 6382 ft 296 kts 91°
2026-05-03 23:59 26.07748 -79.90570 7043 ft 300 kts 91°
2026-05-03 23:59 26.07718 -79.88237 7706 ft 303 kts 91°
2026-05-03 23:59 26.07688 -79.85880 8377 ft 307 kts 91°
2026-05-04 00:00 26.07632 -79.83497 9045 ft 310 kts 96°
2026-05-04 00:00 26.07229 -79.81130 9709 ft 313 kts 105°
2026-05-04 00:00 26.06714 -79.78764 10252 ft 322 kts 106°
2026-05-04 00:00 26.06167 -79.76256 10368 ft 345 kts 105°
2026-05-04 00:01 26.05588 -79.73591 10601 ft 362 kts 105°
2026-05-04 00:01 26.04996 -79.70844 11118 ft 368 kts 105°
2026-05-04 00:01 26.04397 -79.68057 11715 ft 372 kts 105°
2026-05-04 00:01 26.03791 -79.65242 12323 ft 376 kts 105°
2026-05-04 00:02 26.03171 -79.62405 12908 ft 379 kts 106°
2026-05-04 00:02 26.02517 -79.59550 13495 ft 383 kts 107°
2026-05-04 00:02 26.01839 -79.56673 14040 ft 386 kts 107°
2026-05-04 00:02 26.01145 -79.53764 14555 ft 390 kts 107°
2026-05-04 00:03 26.00454 -79.50878 15055 ft 394 kts 108°
2026-05-04 00:03 25.99749 -79.47924 15573 ft 397 kts 108°
2026-05-04 00:03 25.99041 -79.44945 16080 ft 401 kts 108°
2026-05-04 00:03 25.98326 -79.41930 16599 ft 405 kts 108°
2026-05-04 00:04 25.97600 -79.38893 17096 ft 408 kts 110°
2026-05-04 00:04 25.96642 -79.35922 17580 ft 410 kts 115°
2026-05-04 00:04 25.95614 -79.32947 18077 ft 413 kts 115°
2026-05-04 00:04 25.94575 -79.29956 18529 ft 417 kts 115°
2026-05-04 00:05 25.93523 -79.26940 18896 ft 421 kts 115°
2026-05-04 00:05 25.92462 -79.23901 19003 ft 421 kts 115°
2026-05-04 00:05 25.91410 -79.20882 19035 ft 418 kts 115°
2026-05-04 00:05 25.90365 -79.17876 19034 ft 417 kts 115°
2026-05-04 00:06 25.89323 -79.14880 19035 ft 416 kts 115°
2026-05-04 00:06 25.88280 -79.11881 19034 ft 416 kts 115°
2026-05-04 00:06 25.87235 -79.08884 19033 ft 416 kts 115°
2026-05-04 00:06 25.86185 -79.05890 19034 ft 416 kts 115°
2026-05-04 00:07 25.85131 -79.02887 19028 ft 417 kts 115°
2026-05-04 00:07 25.84420 -79.00859 19040 ft 418 kts 115°
2026-05-04 00:07 25.83364 -78.97851 19026 ft 417 kts 115°
2026-05-04 00:07 25.82322 -78.94893 19028 ft 417 kts 115°
2026-05-04 00:08 25.81265 -78.91892 19029 ft 417 kts 115°
2026-05-04 00:08 25.80207 -78.88888 19030 ft 417 kts 115°
2026-05-04 00:08 25.79155 -78.85889 19033 ft 417 kts 115°
2026-05-04 00:08 25.78102 -78.82887 19036 ft 418 kts 115°
2026-05-04 00:09 25.77046 -78.79881 19015 ft 416 kts 115°
2026-05-04 00:09 25.76014 -78.76935 18866 ft 404 kts 115°
2026-05-04 00:09 25.75012 -78.74068 18685 ft 393 kts 115°
2026-05-04 00:09 25.73908 -78.71347 18412 ft 382 kts 124°
2026-05-04 00:10 25.72491 -78.68897 18034 ft 373 kts 130°
2026-05-04 00:10 25.71026 -78.66541 17646 ft 369 kts 129°
2026-05-04 00:10 25.69586 -78.64209 17264 ft 365 kts 129°
2026-05-04 00:10 25.68167 -78.61896 16892 ft 361 kts 129°
2026-05-04 00:11 25.66763 -78.59601 16515 ft 357 kts 129°
2026-05-04 00:11 25.65372 -78.57330 16153 ft 355 kts 129°
2026-05-04 00:11 25.63991 -78.55080 15789 ft 352 kts 129°
2026-05-04 00:11 25.62636 -78.52873 15412 ft 350 kts 128°
2026-05-04 00:12 25.61270 -78.50652 15068 ft 348 kts 128°
2026-05-04 00:12 25.59910 -78.48441 14676 ft 346 kts 128°
2026-05-04 00:12 25.58557 -78.46244 14299 ft 344 kts 129°
2026-05-04 00:12 25.57032 -78.44244 13952 ft 336 kts 140°
2026-05-04 00:13 25.55295 -78.42551 13586 ft 331 kts 143°
2026-05-04 00:13 25.53554 -78.40898 13201 ft 328 kts 143°
2026-05-04 00:13 25.51838 -78.39265 12997 ft 320 kts 143°
2026-05-04 00:13 25.50157 -78.37662 12872 ft 320 kts 143°
2026-05-04 00:14 25.48473 -78.36060 12476 ft 318 kts 143°
2026-05-04 00:14 25.46794 -78.34463 12105 ft 316 kts 143°
2026-05-04 00:14 25.45127 -78.32881 11738 ft 314 kts 143°
2026-05-04 00:14 25.43474 -78.31313 11377 ft 313 kts 142°
2026-05-04 00:15 25.41826 -78.29747 11020 ft 311 kts 142°
2026-05-04 00:15 25.40192 -78.28192 10687 ft 309 kts 142°
2026-05-04 00:15 25.38571 -78.26649 10381 ft 305 kts 142°
2026-05-04 00:15 25.36991 -78.25149 10084 ft 302 kts 142°
2026-05-04 00:16 25.35411 -78.23648 9771 ft 297 kts 142°
2026-05-04 00:16 25.33853 -78.22172 9439 ft 293 kts 142°
2026-05-04 00:16 25.32317 -78.20719 9113 ft 289 kts 142°
2026-05-04 00:16 25.30801 -78.19283 8788 ft 285 kts 142°
2026-05-04 00:17 25.29313 -78.17859 8464 ft 282 kts 139°
2026-05-04 00:17 25.28180 -78.16117 8146 ft 281 kts 112°
2026-05-04 00:17 25.27877 -78.14012 7830 ft 278 kts 83°
2026-05-04 00:17 25.28295 -78.11942 7514 ft 275 kts 73°
2026-05-04 00:18 25.28860 -78.09940 7206 ft 272 kts 71°
2026-05-04 00:18 25.29437 -78.07964 6898 ft 268 kts 71°
2026-05-04 00:18 25.30011 -78.06016 6591 ft 265 kts 71°
2026-05-04 00:18 25.30576 -78.04090 6280 ft 262 kts 71°
2026-05-04 00:19 25.31136 -78.02186 5959 ft 259 kts 71°
2026-05-04 00:19 25.31692 -78.00306 5647 ft 256 kts 71°
2026-05-04 00:19 25.32241 -77.98457 5357 ft 249 kts 71°
2026-05-04 00:19 25.32778 -77.96660 5038 ft 244 kts 71°
2026-05-04 00:20 25.33306 -77.94899 4722 ft 239 kts 71°
2026-05-04 00:20 25.33821 -77.93173 4394 ft 234 kts 71°
2026-05-04 00:20 25.34323 -77.91477 4075 ft 230 kts 71°
2026-05-04 00:20 25.34762 -77.89801 3751 ft 226 kts 83°
2026-05-04 00:21 25.34579 -77.88117 3443 ft 219 kts 107°
2026-05-04 00:21 25.33957 -77.86600 3118 ft 215 kts 124°
2026-05-04 00:21 25.33103 -77.85262 2808 ft 210 kts 125°
2026-05-04 00:21 25.32273 -77.83944 2500 ft 207 kts 124°
2026-05-04 00:22 25.31463 -77.82651 2211 ft 202 kts 123°
2026-05-04 00:22 25.30682 -77.81407 2037 ft 193 kts 123°
2026-05-04 00:22 25.29939 -77.80228 2010 ft 183 kts 123°
2026-05-04 00:22 25.29204 -77.79059 2016 ft 187 kts 123°
2026-05-04 00:23 25.28465 -77.77886 2019 ft 188 kts 123°
2026-05-04 00:23 25.27715 -77.76698 2020 ft 188 kts 123°
2026-05-04 00:23 25.26965 -77.75513 2021 ft 188 kts 124°
2026-05-04 00:23 25.26213 -77.74325 2023 ft 188 kts 123°
2026-05-04 00:24 25.25462 -77.73140 2022 ft 188 kts 123°
2026-05-04 00:24 25.24713 -77.71954 2023 ft 188 kts 124°
2026-05-04 00:24 25.23965 -77.70770 2023 ft 188 kts 123°
2026-05-04 00:24 25.23214 -77.69582 2024 ft 189 kts 123°
2026-05-04 00:25 25.22460 -77.68395 2023 ft 189 kts 124°
2026-05-04 00:25 25.21707 -77.67211 2026 ft 189 kts 123°
2026-05-04 00:25 25.20950 -77.66018 2023 ft 189 kts 124°
2026-05-04 00:25 25.20193 -77.64828 2028 ft 190 kts 123°
2026-05-04 00:26 25.19431 -77.63637 2029 ft 190 kts 127°
2026-05-04 00:26 25.18573 -77.62529 2030 ft 189 kts 130°
2026-05-04 00:26 25.17668 -77.61477 2030 ft 189 kts 132°
2026-05-04 00:26 25.16746 -77.60439 2029 ft 189 kts 133°
2026-05-04 00:27 25.15824 -77.59409 2027 ft 189 kts 133°
2026-05-04 00:27 25.14900 -77.58379 2032 ft 188 kts 133°
2026-05-04 00:27 25.14012 -77.57391 2044 ft 177 kts 133°
2026-05-04 00:27 25.13154 -77.56435 2031 ft 174 kts 133°
2026-05-04 00:28 25.12304 -77.55488 1918 ft 173 kts 133°
2026-05-04 00:28 25.11470 -77.54560 1732 ft 171 kts 134°
2026-05-04 00:28 25.10625 -77.53619 1530 ft 168 kts 133°
2026-05-04 00:28 25.09828 -77.52733 1310 ft 162 kts 132°
2026-05-04 00:29 25.09045 -77.51862 1090 ft 159 kts 133°
2026-05-04 00:29 25.08273 -77.51004 896 ft 154 kts 132°
2026-05-04 00:29 25.07529 -77.50177 694 ft 150 kts 133°
2026-05-04 00:29 25.06796 -77.49361 513 ft 150 kts 133°
2026-05-04 00:30 25.06064 -77.48547 315 ft 150 kts 133°
2026-05-04 00:30 25.05332 -77.47733 111 ft 150 kts 133°
2026-05-04 00:30 25.04627 -77.46943 21 ft 124 kts 134°
2026-05-04 00:30 25.04229 -77.46510 19 ft 38 kts 136°
2026-05-04 00:31 25.04114 -77.46280 18 ft 33 kts 111°
2026-05-04 00:31 25.04129 -77.46166 18 ft 6 kts 355°
2026-05-04 00:31 25.04138 -77.46168 17 ft 2 kts 351°
2026-05-04 00:31 25.04153 -77.46176 17 ft 3 kts 330°
2026-05-04 00:32 25.04176 -77.46194 17 ft 5 kts 319°
2026-05-04 00:32 25.04205 -77.46226 17 ft 7 kts 315°
2026-05-04 00:32 25.04243 -77.46267 18 ft 9 kts 315°
2026-05-04 00:32 25.04289 -77.46317 17 ft 10 kts 315°
2026-05-04 00:33 25.04342 -77.46374 18 ft 11 kts 315°
2026-05-04 00:33 25.04461 -77.46512 18 ft 14 kts 315°
2026-05-04 00:33 25.04531 -77.46590 18 ft 15 kts 315°
2026-05-04 00:34 25.04606 -77.46672 18 ft 16 kts 314°
2026-05-04 00:34 25.04685 -77.46761 18 ft 17 kts 314°
2026-05-04 00:34 25.04772 -77.46854 19 ft 18 kts 315°
2026-05-04 00:34 25.04798 -77.46882 20 ft 0 kts 315°
2026-05-04 00:35 25.04804 -77.46889 19 ft 1 kts 315°
2026-05-04 00:35 25.04806 -77.46891 19 ft 1 kts 315°
2026-05-04 00:35 25.04809 -77.46895 18 ft 1 kts 315°
2026-05-04 00:35 25.04816 -77.46902 18 ft 3 kts 315°
2026-05-04 00:36 25.04836 -77.46924 19 ft 5 kts 315°
2026-05-04 00:36 25.04873 -77.46952 18 ft 8 kts 345°
2026-05-04 00:36 25.04926 -77.46924 17 ft 10 kts 38°
2026-05-04 00:36 25.04974 -77.46856 17 ft 12 kts 42°
2026-05-04 00:37 25.05037 -77.46842 17 ft 8 kts 349°
2026-05-04 00:37 25.05051 -77.46845 17 ft 0 kts 349°